Regional Weather Roundup
Issued by NWS

Home | Current Version | Previous Version | Graphics & Text | Print | Product List | Glossary On
Versions: 1 2 3 4 5 6 7 8 9 10 11 12 13 14 15 16 17 18 19 20 21 22 23 24 25 26 27 28 29 30 31 32 33 34 35 36 37 38 39 40 41 42 43 44 45 46 47 48 49 50
000
ASUS43 KDMX 251901
RWRIA

WEATHER ROUNDUP FOR IOWA
NATIONAL WEATHER SERVICE DES MOINES IA
200 PM CDT SAT MAR 25 2017

NOTE: "FAIR" INDICATES FEW OR NO CLOUDS BELOW 12,000 FEET WITH NO
SIGNIFICANT WEATHER AND/OR OBSTRUCTIONS TO VISIBILITY.

* - THESE STATIONS ARE NOT NWS STATIONS...THUS NOT UNDER NWS
QUALITY CONTROL.  THEY ALSO DO NOT REPORT WEATHER SUCH
AS PRECIPITATION OR FOG.

IAZ001>003-012>014-020>022-031>034-043>046-252000-
   NORTHWEST IOWA

CITY           SKY/WX    TMP DP  RH WIND       PRES   REMARKS
CARROLL *      LGT RAIN  39  39 100 NE15      29.97S WCI  31
CHEROKEE *     CLOUDY    39  38  97 NE15      30.01F FOG     WCI  30
LE MARS *      CLOUDY    39  37  93 NE14      30.03F WCI  31
ORANGE CITY *  CLOUDY    37  37 100 E12G17    30.02F WCI  30
SHELDON *      CLOUDY    39  39 100 NE21      30.01F WCI  29
SIOUX CITY     CLOUDY    40  38  93 NE13      30.01F WCI  32
SPENCER        CLOUDY    39  36  89 NE18      30.03F WCI  30
STORM LAKE *   CLOUDY    37  37 100 NE23      29.99S FOG     WCI  26
$$

IAZ055>058-069>071-079>083-090>094-252000-
   SOUTHWEST IOWA

CITY           SKY/WX    TMP DP  RH WIND       PRES   REMARKS
ATLANTIC *     LGT RAIN  41  39  93 NE17G25   29.93F
AUDUBON *      RAIN      39  37  93 NE13G23   29.95F WCI  32
CLARINDA *     CLOUDY    45  43  93 NE13G20   29.93S
COUNCIL BLFS * PTSUNNY   41  41 100 N14       29.94F
CRESTON *      CLOUDY    43  43 100 NE21      29.90F
HARLAN  *      LGT RAIN  41  41 100 NE15      29.98F
LAMONI         CLOUDY    45  43  93 NE14      29.87F
RED OAK *      CLOUDY    43  41  93 NE14      29.93S
SHENANDOAH *   LGT RAIN  43  41  93 NE15G21   29.93S
$$

IAZ047>049-059>061-072>074-084-252000-
   CENTRAL IOWA

CITY           SKY/WX    TMP DP  RH WIND       PRES   REMARKS
AMES           LGT RAIN  40  40 100 NE15G21   29.96S FOG     WCI  32
ANKENY *       LGT RAIN  41  39  93 NE12G20   29.95F
BOONE *        LGT RAIN  39  39 100 NE17G24   29.94F WCI  30
CHARITON *     CLOUDY    43  41  93 NE16      29.89F
DES MOINES     CLOUDY    43  40  89 NE16G23   29.93F
GRINNELL*      CLOUDY    40  39  96 NE15G22   29.93F FOG     WCI  32
MARSHALLTOWN   LGT RAIN  40  39  97 NE16      29.95F FOG     WCI  31
NEWTON *       PTSUNNY   41  39  93 NE18      29.91F FOG
PELLA *        LGT RAIN  42  41  97 NE10G18   29.93S
PERRY *        DRIZZLE   41  39  94 NE15      29.96S
$$

IAZ004>006-015-016-023>025-035-036-252000-
   NORTH CENTRAL IOWA

CITY           SKY/WX    TMP DP  RH WIND       PRES   REMARKS
ALGONA *       CLOUDY    39  39 100 NE20      30.01F WCI  30
CLARION *      CLOUDY    39  39 100 NE20      29.98F FOG     WCI  30
ESTHERVILLE    CLOUDY    38  37  97 NE18      30.03F FOG     WCI  28
FORT DODGE *   CLOUDY    39  36  87 NE13G22   29.99F WCI  32
MASON CITY     CLOUDY    37  35  92 NE18G26   30.02F WCI  27
FOREST CITY *  CLOUDY    37  36  93 E13       30.01F WCI  29
WEBSTER CITY * RAIN      39  37  93 NE10      29.97R WCI  32
IOWA FALLS *   LGT RAIN  39  38  94 NE12G20   29.98S WCI  32
$$

IAZ007>011-017>019-026>030-037>042-050>054-066-252000-
   NORTHEAST IOWA

CITY           SKY/WX    TMP DP  RH WIND       PRES   REMARKS
CEDAR RAPIDS   LGT RAIN  41  41 100 NE15      29.92F FOG
CHARLES CITY * RAIN      39  39 100 NE20      30.00F WCI  30
CLINTON *      LGT RAIN  44  43  96 E20       29.93F
DECORAH *      MIX PCPN  37  36  93 NE14G22   30.01F WCI  29
DUBUQUE        LGT RAIN  40  39  97 NE17G29   29.96F FOG     WCI  31
MONTICELLO *   CLOUDY    41  41 100 E15G24    29.94F FOG
OELWEIN *      LGT RAIN  39  39 100 NE22G29   29.96S WCI  29
WATERLOO       LGT RAIN  40  37  89 NE15      29.98S WCI  32
$$

IAZ064-065-067-068-078-252000-
   EAST CENTRAL IOWA

CITY           SKY/WX    TMP DP  RH WIND       PRES   REMARKS
DAVENPORT      CLOUDY    46  44  93 E15       29.92F
IOWA CITY      LGT RAIN  44  42  93 NE12      29.93F FOG
MUSCATINE *    CLOUDY    46  45  93 NE12      29.90F
QUAD CITIES    CLOUDY    48  46  93 E12       29.91F
$$

IAZ062-063-075>077-085>089-095>099-252000-
   SOUTHEAST IOWA

CITY           SKY/WX    TMP DP  RH WIND       PRES   REMARKS
BURLINGTON     CLOUDY    53  32  44 MISG      29.86F
FAIRFIELD *    CLOUDY    45  45 100 MISG      29.88S
FORT MADISON * CLOUDY    55  55 100 NE6       29.87F FOG
KEOKUK *       CLOUDY    55  54  94 N5        29.85F
OSKALOOSA *    CLOUDY    43  42  97 NE14      29.90F FOG
OTTUMWA        CLOUDY    45  44  97 NE14      29.89F
WASHINGTON *   CLOUDY    45  45 100 NE16      29.90S
$$

ABBREVIATIONS USED IN REMARKS
   TC - TEMPERATURES IN CELSIUS
  WCI - WIND CHILL INDEX
   HX - HEAT INDEX
  VSB - VISIBILITY
$$





USA.gov is the U.S. government's official web portal to all federal, state and local government web resources and services.